Latest Coastal Weather Observations for Warruwi

IDD60701

Issued at 2:21 am CST Sunday 24 July 2016 (issued every 10 minutes, with the page automatically refreshed every 10 minutes)

About coastal observations | Map of coastal stations | Coastal observations for NT | Marine services | Other Formats
Station Details ID: 014401 Name: WARRUWI AIRPORT Lat: -11.65 Lon: 133.38 Height: 19.2 m
Data from the previous 72 hours. | See also: Recent months at Warruwi
Date/Time
CST
Temp
°C
Wind Pressure Rain since
9am
mm
Weather Cloud Vis
km
Sea
Height
m
Swell
Dir  Spd
kts
Gust
kts
hPa Trend Height
m
Period
s
Dir
24/02:00am 25.8 E 7 8 1011.5 - 0.0 - - - - - - -
24/01:30am 25.9 E 5 7 1011.7 - 0.0 - - - - - - -
24/01:00am 25.9 E 5 8 1011.8 - 0.0 - - - - - - -
24/12:30am 26.0 E 5 9 1011.9 - 0.0 - - - - - - -
24/12:00am 25.9 ENE 4 8 1011.8 - 0.0 - - - - - - -
 
Date/Time
CST
Temp
°C
Wind Pressure Rain since
9am
mm
Weather Cloud Vis
km
Sea
Height
m
Swell
Dir  Spd
kts
Gust
kts
hPa Trend Height
m
Period
s
Dir
23/11:30pm 26.0 E 4 7 1011.9 - 0.0 - - - - - - -
23/11:00pm 26.0 ENE 4 9 1011.9 - 0.0 - - - - - - -
23/10:30pm 26.0 ENE 4 8 1011.9 - 0.0 - - - - - - -
23/10:00pm 26.0 ENE 5 8 1011.8 - 0.0 - - - - - - -
23/09:30pm 25.9 ENE 4 6 1011.4 - 0.0 - - - - - - -
23/09:00pm 25.8 ENE 3 6 1011.2 - 0.0 - - - - - - -
23/08:30pm 25.8 ENE 2 4 1010.8 - 0.0 - - - - - - -
23/08:00pm 25.9 NE 3 5 1010.5 - 0.0 - - - - - - -
23/07:30pm 26.1 NE 3 7 1010.2 - 0.0 - - - - - - -
23/07:00pm 26.3 NE 3 5 1009.9 - 0.0 - - - - - - -
23/06:30pm 26.7 NE 4 6 1009.8 - 0.0 - - - - - - -
23/06:00pm 27.8 NE 4 9 1009.7 - 0.0 - - - - - - -
23/05:30pm 28.6 ENE 5 10 1009.5 - 0.0 - - - - - - -
23/05:00pm 29.3 ENE 6 9 1009.5 - 0.0 - - - - - - -
23/04:30pm 29.2 ENE 8 13 1009.4 - 0.0 - - - - - - -
23/04:00pm 30.0 E 8 12 1009.4 - 0.0 - - - - - - -
23/03:30pm 30.2 E 9 12 1009.6 - 0.0 - - - - - - -
23/03:00pm 30.1 E 7 13 1009.9 - 0.0 - - - - - - -
23/02:30pm 30.0 E 8 12 1010.2 - 0.0 - - - - - - -
23/02:00pm 29.2 E 9 13 1010.8 - 0.0 - - - - - - -
23/01:30pm 29.9 E 7 13 1011.4 - 0.0 - - - - - - -
23/01:00pm 29.7 E 8 10 1011.6 - 0.0 - - - - - - -
23/12:30pm 29.3 E 7 10 1011.9 - 0.0 - - - - - - -
23/12:00pm 29.1 E 6 9 1012.3 - 0.0 - - - - - - -
23/11:30am 28.7 E 6 9 1012.8 - 0.0 - - - - - - -
23/11:00am 28.3 ESE 7 10 1013.2 - 0.0 - - - - - - -
23/10:30am 27.9 E 5 8 1013.5 - 0.0 - - - - - - -
23/10:00am 27.7 E 5 8 1013.7 - 0.0 - - - - - - -
23/09:30am 27.0 SE 5 7 1013.6 - 0.0 - - - - - - -
23/09:00am 26.5 SE 6 8 1013.3 - 0.0 - - - - - - -
23/08:30am 26.0 ESE 5 7 1013.2 - 0.0 - - - - - - -
23/08:00am 25.2 SE 5 7 1012.9 - 0.0 - - - - - - -
23/07:30am 24.4 SE 5 7 1012.6 - 0.0 - - - - - - -
23/07:00am 24.1 SE 6 8 1012.3 - 0.0 - - - - - - -
23/06:30am 24.2 ESE 5 8 1011.9 - 0.0 - - - - - - -
23/06:00am 24.4 ESE 6 9 1011.7 - 0.0 - - - - - - -
23/05:30am 24.7 E 7 10 1011.5 - 0.0 - - - - - - -
23/05:00am 25.0 E 8 14 1011.2 - 0.0 - - - - - - -
23/04:30am 25.0 ESE 8 11 1011.1 - 0.0 - - - - - - -
23/04:00am 25.0 ESE 9 13 1010.9 - 0.0 - - - - - - -
23/03:30am 25.1 ESE 9 13 1011.0 - 0.0 - - - - - - -
23/03:00am 25.1 ESE 7 10 1011.2 - 0.0 - - - - - - -
23/02:30am 24.9 ESE 7 11 1011.3 - 0.0 - - - - - - -
23/02:00am 25.1 ESE 5 7 1011.4 - 0.0 - - - - - - -
23/01:30am 25.4 ESE 5 7 1011.2 - 0.0 - - - - - - -
23/01:00am 25.5 E 4 6 1011.3 - 0.0 - - - - - - -
23/12:30am 25.4 E 4 6 1011.5 - 0.0 - - - - - - -
23/12:00am 25.3 E 2 4 1011.7 - 0.0 - - - - - - -
 
Date/Time
CST
Temp
°C
Wind Pressure Rain since
9am
mm
Weather Cloud Vis
km
Sea
Height
m
Swell
Dir  Spd
kts
Gust
kts
hPa Trend Height
m
Period
s
Dir
22/11:30pm 25.3 E 1 3 1011.8 - 0.0 - - - - - - -
22/11:00pm 25.3 E 2 4 1011.8 - 0.0 - - - - - - -
22/10:30pm 25.1 ENE 2 2 1011.7 - 0.0 - - - - - - -
22/10:00pm 25.1 NE 2 3 1011.5 - 0.0 - - - - - - -
22/09:30pm 25.4 NE 2 2 1011.4 - 0.0 - - - - - - -
22/09:00pm 25.5 ENE 2 3 1011.2 - 0.0 - - - - - - -
22/08:30pm 25.6 ENE 2 3 1011.1 - 0.0 - - - - - - -
22/08:00pm 25.9 E 2 3 1010.9 - 0.0 - - - - - - -
22/07:30pm 26.1 NE 2 3 1010.6 - 0.0 - - - - - - -
22/07:00pm 26.4 NE 3 5 1010.5 - 0.0 - - - - - - -
22/06:30pm 26.7 NE 5 9 1010.5 - 0.0 - - - - - - -
22/06:00pm 27.5 ENE 5 9 1010.5 - 0.0 - - - - - - -
22/05:30pm 28.2 ENE 7 12 1010.3 - 0.0 - - - - - - -
22/05:00pm 28.9 ENE 8 13 1010.2 - 0.0 - - - - - - -
22/04:30pm 29.5 ENE 8 13 1010.2 - 0.0 - - - - - - -
22/04:00pm 29.7 ENE 9 15 1010.2 - 0.0 - - - - - - -
22/03:30pm 29.7 E 9 12 1010.4 - 0.0 - - - - - - -
22/03:00pm 30.3 ENE 8 12 1010.7 - 0.0 - - - - - - -
22/02:30pm 29.2 ENE 8 14 1011.0 - 0.0 - - - - - - -
22/02:00pm 29.2 ENE 8 13 1011.2 - 0.0 - - - - - - -
22/01:30pm 30.3 E 9 13 1011.6 - 0.0 - - - - - - -
22/01:00pm 29.1 E 7 12 1012.0 - 0.0 - - - - - - -
22/12:30pm 29.2 E 7 10 1012.2 - 0.0 - - - - - - -
22/12:00pm 28.8 E 7 9 1012.7 - 0.0 - - - - - - -
22/11:30am 28.5 E 6 9 1013.2 - 0.0 - - - - - - -
22/11:00am 28.3 E 7 9 1013.6 - 0.0 - - - - - - -
22/10:30am 27.8 ESE 7 11 1013.7 - 0.0 - - - - - - -
22/10:00am 27.1 SE 8 14 1013.7 - 0.0 - - - - - - -
22/09:30am 26.5 SE 8 12 1013.8 - 0.0 - - - - - - -
22/09:00am 26.3 ESE 6 10 1013.9 - 0.0 - - - - - - -
22/08:30am 25.4 ESE 6 11 1013.7 - 0.0 - - - - - - -
22/08:00am 24.9 ESE 4 6 1013.4 - 0.0 - - - - - - -
22/07:30am 23.9 SE 3 5 1013.3 - 0.0 - - - - - - -
22/07:00am 23.9 SE 4 5 1013.1 - 0.0 - - - - - - -
22/06:30am 24.1 ESE 5 8 1013.1 - 0.0 - - - - - - -
22/06:00am 24.2 ESE 6 8 1012.8 - 0.0 - - - - - - -
22/05:30am 23.6 ESE 4 6 1012.7 - 0.0 - - - - - - -
22/05:00am 22.5 ESE 2 5 1012.5 - 0.0 - - - - - - -
22/04:30am 22.5 CALM 0 0 1012.4 - 0.0 - - - - - - -
22/04:00am 22.7 CALM 0 0 1012.3 - 0.0 - - - - - - -
22/03:30am 23.2 SSE 1 2 1012.2 - 0.0 - - - - - - -
22/03:00am 23.4 S 2 3 1012.3 - 0.0 - - - - - - -
22/02:30am 23.6 S 2 3 1012.5 - 0.0 - - - - - - -
22/02:00am 23.9 SSE 1 2 1012.7 - 0.0 - - - - - - -
22/01:30am 24.2 CALM 0 0 1012.8 - 0.0 - - - - - - -
22/01:00am 23.9 ESE 1 1 1012.7 - 0.0 - - - - - - -
22/12:30am 23.6 CALM 0 0 1012.6 - 0.0 - - - - - - -
22/12:00am 23.6 CALM 0 0 1012.5 - 0.0 - - - - - - -
 
Date/Time
CST
Temp
°C
Wind Pressure Rain since
9am
mm
Weather Cloud Vis
km
Sea
Height
m
Swell
Dir  Spd
kts
Gust
kts
hPa Trend Height
m
Period
s
Dir
21/11:30pm 23.6 CALM 0 0 1012.4 - 0.0 - - - - - - -
21/11:00pm 23.6 CALM 0 0 1012.5 - 0.0 - - - - - - -
21/10:30pm 23.9 CALM 0 0 1012.6 - 0.0 - - - - - - -
21/10:00pm 24.1 CALM 0 0 1012.5 - 0.0 - - - - - - -
21/09:30pm 24.2 CALM 0 0 1012.5 - 0.0 - - - - - - -
21/09:00pm 24.8 CALM 0 0 1012.2 - 0.0 - - - - - - -
21/08:30pm 25.2 NE 1 2 1011.9 - 0.0 - - - - - - -
21/08:00pm 25.1 NE 2 4 1011.6 - 0.0 - - - - - - -
21/07:30pm 25.5 NE 2 4 1011.5 - 0.0 - - - - - - -
21/07:00pm 25.8 NE 2 3 1011.3 - 0.0 - - - - - - -
21/06:30pm 26.6 NNE 3 5 1011.2 - 0.0 - - - - - - -
21/06:00pm 27.8 NE 3 5 1010.9 - 0.0 - - - - - - -
21/05:30pm 29.5 NE 4 6 1010.8 - 0.0 - - - - - - -
21/05:00pm 30.2 ENE 3 6 1010.6 - 0.0 - - - - - - -
21/04:30pm 29.4 E 5 9 1010.6 - 0.0 - - - - - - -
21/04:00pm 29.9 E 5 8 1010.6 - 0.0 - - - - - - -
21/03:30pm 29.4 E 8 10 1010.9 - 0.0 - - - - - - -
21/03:00pm 28.9 E 7 10 1011.3 - 0.0 - - - - - - -
21/02:30pm 28.9 E 9 13 1011.7 - 0.0 - - - - - - -
21/02:00pm 30.2 E 9 12 1012.2 - 0.0 - - - - - - -
21/01:30pm 30.5 ENE 7 11 1012.6 - 0.0 - - - - - - -
21/01:00pm 30.8 E 7 9 1012.9 - 0.0 - - - - - - -
21/12:30pm 30.7 E 6 9 1013.2 - 0.0 - - - - - - -
21/12:00pm 30.1 E 6 8 1013.6 - 0.0 - - - - - - -
21/11:30am 29.0 ESE 6 8 1014.0 - 0.0 - - - - - - -
21/11:00am 28.4 SE 5 7 1014.3 - 0.0 - - - - - - -
21/10:30am 27.6 SE 5 7 1014.4 - 0.0 - - - - - - -
21/10:00am 26.4 ESE 5 8 1014.7 - 0.0 - - - - - - -
21/09:30am 25.3 SE 6 8 1014.7 - 0.0 - - - - - - -
21/09:00am 25.3 SE 5 7 1014.6 - 0.0 - - - - - - -
21/08:30am 24.7 ESE 6 8 1014.5 - 0.0 - - - - - - -
21/08:00am 23.8 ESE 5 7 1014.3 - 0.0 - - - - - - -
21/07:30am 22.6 ESE 4 5 1014.0 - 0.0 - - - - - - -
21/07:00am 22.0 ESE 5 6 1013.7 - 0.0 - - - - - - -
21/06:30am 21.2 SE 2 3 1013.4 - 0.0 - - - - - - -
21/06:00am 22.0 SE 2 3 1013.3 - 0.0 - - - - - - -
21/05:30am 22.4 ESE 4 5 1013.2 - 0.0 - - - - - - -
21/05:00am 22.7 ESE 5 6 1013.1 - 0.0 - - - - - - -
21/04:30am 22.8 ESE 5 7 1012.9 - 0.0 - - - - - - -
21/04:00am 22.8 SE 6 8 1012.9 - 0.0 - - - - - - -
21/03:30am 22.7 SE 4 5 1013.1 - 0.0 - - - - - - -
21/03:00am 22.7 SE 4 5 1013.1 - 0.0 - - - - - - -
21/02:30am 22.8 SE 3 4 1013.2 - 0.0 - - - - - - -

Other Formats:

Comma delimited format used in spreadsheet applications
http://www.bom.gov.au/fwo/IDD60701/IDD60701.94139.axf

JavaScript Object Notation format (JSON) in row-major order
http://www.bom.gov.au/fwo/IDD60701/IDD60701.94139.json